5 day graph

You are here

Hive Data

Page: 1 of 16645  Records: 998690

Row Date Time Hive Temp Hive Humidity Outside Temp Outside Humidity Bottom Board Temp Outside Wall Temp Electronics Temp Light Levels inHG Fan Heat Cover Notes
Clear Sorted By: Row ascending
View 1 May 4 2014 12:38:31pm 82.4 47 60.62 58 81.5 64.4 78.8 884 29.06 0 0 0 Started Capturing Data from the Arduino and saving it to SQL. There is more data on the SD card.
View 2 May 4 2014 12:39:30pm 82.22 60 60.44 61 81.5 64.4 78.8 878 29.06 0 0 0 NA
View 3 May 4 2014 12:40:32pm 82.22 56 60.44 60 81.5 64.4 78.8 877 29.06 0 0 0 NA
View 4 May 4 2014 12:41:33pm 82.22 59 60.26 58 81.5 63.95 78.8 886 29.06 0 0 0 NA
View 5 May 4 2014 12:42:34pm 82.04 57 60.08 59 81.5 63.95 78.8 879 29.07 0 0 0 NA
View 6 May 4 2014 12:43:36pm 82.22 54 59.9 58 81.5 63.95 80.6 871 29.07 0 0 0 NA
View 7 May 4 2014 12:44:36pm 82.22 57 59.54 60 81.5 63.5 80.6 869 29.07 0 0 0 NA
View 8 May 4 2014 12:45:37pm 82.22 58 59.54 59 81.5 63.5 78.8 877 29.07 0 0 0 NA
View 9 May 4 2014 12:46:38pm 82.22 58 59.36 59 81.5 63.5 78.8 884 29.06 0 0 0 NA
View 10 May 4 2014 12:47:40pm 82.22 52 59.36 59 81.5 63.5 78.8 894 29.07 0 0 0 NA
View 11 May 4 2014 12:48:41pm 82.22 54 59.18 59 81.5 63.5 78.8 906 29.06 0 0 0 NA
View 12 May 4 2014 12:49:41pm 82.22 56 59.18 59 81.5 63.95 78.8 912 29.07 0 0 0 NA
View 13 May 4 2014 12:50:42pm 82.22 45 59.18 59 81.5 63.95 78.8 916 29.06 0 0 0 NA
View 14 May 4 2014 12:51:43pm 82.4 54 59.18 59 81.05 63.95 78.8 916 29.07 0 0 0 NA
View 15 May 4 2014 12:52:45pm 82.4 58 59.36 59 81.5 63.95 78.8 915 29.07 0 0 0 NA
View 16 May 4 2014 12:53:46pm 82.4 55 59.36 59 81.05 63.95 78.8 916 29.07 0 0 0 NA
View 17 May 4 2014 12:54:46pm 82.4 56 59.36 59 81.05 63.95 78.8 915 29.07 0 0 0 NA
View 18 May 4 2014 12:55:47pm 82.4 54 59.54 58 81.5 63.95 78.8 915 29.07 0 0 0 NA
View 19 May 4 2014 12:56:49pm 82.4 56 59.54 59 81.5 63.95 78.8 914 29.07 0 0 0 NA
View 20 May 4 2014 12:57:50pm 82.58 55 59.54 59 81.5 64.4 77 916 29.07 0 0 0 NA
View 21 May 4 2014 12:58:51pm 82.58 58 59.54 58 81.5 64.4 77 918 29.07 0 0 0 NA
View 22 May 4 2014 12:59:51pm 82.58 55 59.54 60 81.5 64.4 77 922 29.07 0 0 0 NA
View 23 May 4 2014 1:00:52pm 82.58 56 59.72 59 81.5 64.4 77 917 29.07 0 0 0 NA
View 24 May 4 2014 1:01:54pm 82.58 52 59.9 58 81.5 64.4 77 915 29.07 0 0 0 NA
View 25 May 4 2014 1:02:55pm 82.58 53 59.9 59 81.5 64.4 77 906 29.07 0 0 0 NA
View 26 May 4 2014 1:03:56pm 82.58 53 59.9 59 81.5 64.4 77 899 29.07 0 0 0 NA
View 27 May 4 2014 1:04:58pm 82.4 55 59.9 58 81.5 64.4 77 903 29.07 0 0 0 NA
View 28 May 4 2014 1:05:57pm 82.4 54 59.9 59 81.5 64.4 77 912 29.07 0 0 0 NA
View 29 May 4 2014 1:06:59pm 82.4 53 59.9 57 81.5 64.4 77 918 29.07 0 0 0 NA
View 30 May 4 2014 1:08:00pm 82.4 52 59.9 58 81.5 64.4 77 922 29.07 0 0 0 NA
View 31 May 4 2014 1:09:01pm 82.4 54 60.08 58 81.5 64.4 77 927 29.07 0 0 0 NA
View 32 May 4 2014 1:10:03pm 82.4 50 60.08 57 81.5 64.85 77 931 29.07 0 0 0 NA
View 33 May 4 2014 1:11:04pm 82.4 51 60.26 58 81.5 64.85 77 937 29.07 0 0 0 NA
View 34 May 4 2014 1:12:04pm 82.58 53 60.62 58 81.5 64.85 77 941 29.07 0 0 0 NA
View 35 May 4 2014 1:13:05pm 82.76 52 60.8 57 81.5 64.85 77 939 29.07 0 0 0 NA
View 36 May 4 2014 1:14:06pm 82.76 54 60.98 59 81.5 65.3 77 934 29.07 0 0 0 NA
View 37 May 4 2014 1:15:08pm 82.76 51 61.16 57 81.5 65.3 77 937 29.07 0 0 0 NA
View 38 May 4 2014 1:16:09pm 82.76 48 61.34 57 81.5 65.3 77 932 29.07 0 0 0 NA
View 39 May 4 2014 1:17:09pm 82.76 57 61.52 57 81.5 65.3 77 932 29.07 0 0 0 NA
View 40 May 4 2014 1:18:10pm 82.76 51 61.7 57 81.5 65.75 77 927 29.07 0 0 0 NA
View 41 May 4 2014 1:19:12pm 82.76 50 61.52 55 81.5 65.75 77 939 29.06 0 0 0 NA
View 42 May 4 2014 1:20:13pm 82.76 50 61.7 56 81.5 65.75 77 924 29.07 0 0 0 NA
View 43 May 4 2014 1:21:14pm 82.76 54 61.7 56 81.5 65.75 77 918 29.07 0 0 0 NA
View 44 May 4 2014 1:22:14pm 82.76 54 61.7 55 81.5 65.75 77 917 29.07 0 0 0 NA
View 45 May 4 2014 1:23:15pm 82.76 60 61.52 56 81.5 65.75 77 918 29.07 0 0 0 NA
View 46 May 4 2014 1:24:17pm 82.94 63 61.7 56 81.5 65.75 78.8 911 29.07 0 0 0 NA
View 47 May 4 2014 1:25:18pm 82.94 53 61.52 53 81.5 65.3 78.8 915 29.07 0 0 0 NA
View 48 May 4 2014 1:26:19pm 82.94 56 61.34 56 81.5 65.3 77 902 29.07 0 0 0 NA
View 49 May 4 2014 1:27:19pm 82.94 57 61.16 56 81.5 65.3 78.8 893 29.07 0 0 0 NA
View 50 May 4 2014 1:28:21pm 82.94 53 61.16 57 81.5 65.3 78.8 892 29.07 0 0 0 NA
View 51 May 4 2014 1:29:22pm 82.94 53 60.98 55 81.5 64.85 78.8 899 29.07 0 0 0 NA
View 52 May 4 2014 1:30:23pm 82.94 51 60.98 56 81.5 64.85 78.8 902 29.07 0 0 0 NA
View 53 May 4 2014 1:31:23pm 82.94 57 60.8 56 81.5 64.85 78.8 900 29.07 0 0 0 NA
View 54 May 4 2014 1:32:24pm 82.94 55 60.8 55 81.5 64.85 78.8 905 29.07 0 0 0 NA
View 55 May 4 2014 1:33:26pm 82.94 57 60.62 55 81.5 64.85 78.8 910 29.07 0 0 0 NA
View 56 May 4 2014 1:34:27pm 82.94 44 60.44 53 81.5 64.85 78.8 917 29.07 0 0 0 NA
View 57 May 4 2014 1:35:28pm 83.12 54 60.44 55 81.5 64.85 77 922 29.07 0 0 0 NA
View 58 May 4 2014 1:36:28pm 83.12 54 60.44 56 81.5 64.85 77 931 29.07 0 0 0 NA
View 59 May 4 2014 1:37:29pm 82.94 47 60.44 55 81.5 64.85 77 934 29.07 0 0 0 NA
View 60 May 4 2014 1:38:31pm 82.94 49 60.44 55 81.5 65.3 77 930 29.07 0 0 0 NA